Stations météo

réclame
Mon MeteoGroup
Florennes, Belgique (6456): Température de l'air & dewpoint: 13.06.2019 11:00:00 - 19.06.2019 11:00:00 (CEST)Florennes, Belgique (6456): Vitesse du vent & gusts: 13.06.2019 11:00:00 - 19.06.2019 11:00:00 (CEST)Florennes, Belgique (6456): Direction du vent: 13.06.2019 11:00:00 - 19.06.2019 11:00:00 (CEST)Florennes, Belgique (6456): reduced air pressure: 13.06.2019 11:00:00 - 19.06.2019 11:00:00 (CEST)Florennes, Belgique (6456): visibility: 13.06.2019 11:00:00 - 19.06.2019 11:00:00 (CEST)
Date & Time tt [°C] td [°C] ff [km/h] ff [knt] fx [km/h] fx [knt] dd ppp [hPa] vv [km]
19.06.2019 11:00:00 23,4 15,6 22 12 - - S 1008,0 20
19.06.2019 10:00:00 21,1 15,1 18 10 25 14 S 1007,8 20
19.06.2019 09:00:00 21,2 14,5 7 4 18 10 S 1007,2 20
19.06.2019 08:00:00 20,2 14,2 7 4 - - SSW 1007,3 20
19.06.2019 07:00:00 19,3 13,7 14 8 22 12 SSE 1007,0 20
19.06.2019 06:00:00 18,1 13,4 11 6 18 10 SE 1007,5 20
19.06.2019 05:00:00 18,3 13,4 7 4 - - E 1008,1 20
19.06.2019 04:00:00 18,4 13,1 7 4 11 6 ENE 1008,5 20
19.06.2019 03:00:00 18,5 12,9 7 4 11 6 E 1009,0 20
19.06.2019 02:00:00 18,8 12,4 7 4 - - ENE 1009,7 20
19.06.2019 01:00:00 17,7 12,5 7 4 7 4 N 1010,3 20
19.06.2019 00:00:00 17,8 13,0 4 2 4 2 N 1011,0 20
18.06.2019 23:00:00 21,1 12,5 4 2 - - N 1011,2 20
18.06.2019 22:00:00 22,5 12,4 4 2 7 4 N 1011,3 20
18.06.2019 21:00:00 23,9 11,9 7 4 14 8 SSE 1011,0 20
18.06.2019 20:00:00 24,8 12,2 4 2 - - N 1010,8 20
18.06.2019 19:00:00 25,4 12,4 4 2 11 6 N 1011,1 20
18.06.2019 18:00:00 24,7 10,9 4 2 14 8 N 1011,6 20
18.06.2019 17:00:00 25,2 13,6 8 4 - - SSE 1012,0 10
18.06.2019 16:00:00 25,2 11,5 7 4 14 8 S 1012,6 20
18.06.2019 15:00:00 25,1 12,5 7 4 22 12 SSE 1013,1 20
18.06.2019 14:00:00 24,0 13,5 4 2 - - N 1013,5 20
18.06.2019 13:00:00 23,8 13,7 4 2 11 6 N 1013,8 20
18.06.2019 12:00:00 23,4 13,7 4 2 7 4 N 1014,2 20
18.06.2019 11:00:00 22,2 16,0 4 2 - - N 1014,5 20
18.06.2019 10:00:00 20,8 15,1 4 2 11 6 N 1014,7 20
18.06.2019 09:00:00 19,6 14,5 4 2 7 4 N 1015,5 20
18.06.2019 08:00:00 18,0 14,9 4 2 - - N 1015,3 20
18.06.2019 07:00:00 16,3 13,2 4 2 4 2 N 1015,7 20
18.06.2019 06:00:00 15,3 11,8 4 2 4 2 N 1016,0 20
18.06.2019 05:00:00 16,5 11,7 4 2 - - N 1016,0 20
18.06.2019 04:00:00 16,9 11,8 4 2 4 2 N 1016,2 20
18.06.2019 03:00:00 16,8 12,2 4 2 7 4 N 1016,6 20
18.06.2019 02:00:00 17,0 12,5 4 2 - - N 1017,0 20
18.06.2019 01:00:00 17,3 12,9 7 4 7 4 W 1017,2 20
18.06.2019 00:00:00 18,2 12,8 4 2 7 4 N 1017,2 20
17.06.2019 23:00:00 18,8 13,1 4 2 - - N 1017,1 20
17.06.2019 22:00:00 20,2 13,4 4 2 7 4 N 1016,8 20
17.06.2019 21:00:00 22,1 12,9 4 2 11 6 N 1016,7 20
17.06.2019 20:00:00 23,5 12,7 7 4 - - W 1016,6 20
17.06.2019 19:00:00 23,4 11,9 4 2 7 4 N 1016,8 20
17.06.2019 18:00:00 23,8 11,0 4 2 11 6 N 1017,2 20
17.06.2019 17:00:00 23,5 12,3 4 2 - - N 1017,6 20
17.06.2019 16:00:00 24,1 12,1 7 4 14 8 NE 1017,7 20
17.06.2019 15:00:00 22,8 10,8 7 4 14 8 SSE 1018,3 20
17.06.2019 14:00:00 23,3 11,9 7 4 - - N 1018,8 20
17.06.2019 13:00:00 21,3 11,4 7 4 25 14 S 1019,5 20
17.06.2019 12:00:00 20,4 12,7 7 4 18 10 SSW 1019,8 20
17.06.2019 11:00:00 19,9 11,9 11 6 - - SSE 1020,3 20
17.06.2019 10:00:00 19,0 12,0 7 4 14 8 SSE 1020,7 20
17.06.2019 09:00:00 17,7 11,8 7 4 11 6 SE 1021,0 20
17.06.2019 08:00:00 15,2 11,3 4 2 - - N 1021,1 20
17.06.2019 07:00:00 12,8 11,0 7 4 7 4 ENE 1021,3 10
17.06.2019 06:00:00 12,2 10,6 5 3 7 4 E 1021,5 10
17.06.2019 05:00:00 11,9 10,6 7 4 - - ENE 1021,6 20
17.06.2019 04:00:00 12,5 10,8 4 2 7 4 N 1021,7 20
17.06.2019 03:00:00 11,8 10,6 7 4 7 4 ENE 1021,8 20
17.06.2019 02:00:00 14,0 11,4 4 2 - - N 1021,7 20
17.06.2019 01:00:00 14,1 11,2 4 2 4 2 N 1021,7 20
17.06.2019 00:00:00 14,1 11,1 4 2 4 2 N 1022,0 20
16.06.2019 23:00:00 15,0 11,3 4 2 - - N 1021,8 20
16.06.2019 22:00:00 17,2 11,7 4 2 11 6 N 1021,2 20
16.06.2019 21:00:00 18,6 11,0 7 4 18 10 SW 1021,1 20
16.06.2019 20:00:00 19,4 10,8 11 6 - - SSW 1021,0 19
16.06.2019 19:00:00 19,8 10,8 18 10 25 14 SW 1020,7 20
16.06.2019 18:00:00 19,9 9,8 18 10 29 16 SSW 1020,6 20
16.06.2019 17:00:00 19,8 10,5 11 6 - - S 1020,7 20
16.06.2019 16:00:00 18,7 10,4 18 10 29 16 S 1021,2 20
16.06.2019 15:00:00 19,4 11,1 14 8 29 16 SSW 1021,0 20
16.06.2019 14:00:00 18,2 9,6 14 8 - - SW 1021,1 18
16.06.2019 13:00:00 17,2 10,2 22 12 32 18 SSW 1021,3 20
16.06.2019 12:00:00 16,2 10,9 18 10 29 16 SSW 1021,5 20
16.06.2019 11:00:00 15,7 11,3 18 10 - - SSW 1021,2 20
16.06.2019 10:00:00 15,5 11,6 18 10 29 16 SW 1020,7 20
16.06.2019 09:00:00 14,6 11,5 18 10 32 18 SSW 1020,6 20
16.06.2019 08:00:00 13,9 10,9 14 8 - - S 1020,2 20
16.06.2019 07:00:00 12,6 9,9 14 8 29 16 SSW 1020,2 20
16.06.2019 06:00:00 11,9 9,2 14 8 25 14 SSW 1019,8 20
16.06.2019 05:00:00 12,1 8,9 11 6 - - SW 1019,7 20
16.06.2019 04:00:00 12,8 9,3 11 6 14 8 SSE 1019,5 20
16.06.2019 03:00:00 13,3 9,2 7 4 14 8 S 1019,2 20
16.06.2019 02:00:00 14,0 9,6 4 2 - - N 1019,2 20
16.06.2019 01:00:00 15,1 9,0 11 6 18 10 SSW 1018,6 20
16.06.2019 00:00:00 15,5 8,8 14 8 22 12 SSW 1018,0 20
15.06.2019 23:00:00 15,4 8,2 14 8 - - SSW 1017,6 20
15.06.2019 22:00:00 16,5 9,1 7 4 22 12 SW 1017,0 20
15.06.2019 21:00:00 18,5 9,5 7 4 25 14 SSW 1016,2 20
15.06.2019 20:00:00 19,3 9,5 18 10 - - WSW 1016,0 20
15.06.2019 19:00:00 20,1 9,6 18 10 36 19 SW 1015,6 20
15.06.2019 18:00:00 19,7 8,7 22 12 36 19 SW 1015,7 20
15.06.2019 17:00:00 20,3 8,6 22 12 - - SW 1015,7 20
15.06.2019 16:00:00 20,2 10,0 22 12 40 21 SSW 1015,6 20
15.06.2019 15:00:00 19,9 10,0 22 12 36 19 SSW 1015,3 20
15.06.2019 14:00:00 20,2 8,7 22 12 - - SW 1015,2 20
15.06.2019 13:00:00 19,5 9,2 25 14 36 19 SW 1015,1 20
15.06.2019 12:00:00 18,5 11,1 22 12 40 21 WSW 1014,6 20
15.06.2019 11:00:00 17,9 13,6 25 14 - - WSW 1014,1 20
15.06.2019 10:00:00 16,0 14,5 18 10 29 16 SSW 1013,7 10
15.06.2019 09:00:00 15,2 14,4 7 4 11 6 SW 1013,2 13
15.06.2019 08:00:00 13,8 12,9 4 2 - - N 1012,7 3,1
15.06.2019 07:00:00 13,3 12,5 4 2 22 12 N 1012,3 4,7
15.06.2019 06:00:00 13,5 12,7 16 9 32 18 WSW 1012,1 5
15.06.2019 05:00:00 15,5 14,6 7 4 - - S 1011,2 4,4
15.06.2019 04:00:00 15,8 14,9 9 5 14 8 S 1010,8 5
15.06.2019 03:00:00 16,1 14,9 2 1 11 6 - 1011,1 8
15.06.2019 02:00:00 16,5 14,8 7 4 - - SSE 1011,3 20
15.06.2019 01:00:00 16,7 15,2 4 2 11 6 N 1010,8 19
15.06.2019 00:00:00 16,8 15,0 15 8 25 14 S 1012,3 10
14.06.2019 23:00:00 19,5 13,1 4 2 - - N 1012,5 20
14.06.2019 22:00:00 19,3 13,7 7 4 14 8 NNW 1012,1 20
14.06.2019 21:00:00 20,4 13,4 4 2 11 6 N 1011,7 20
14.06.2019 20:00:00 21,7 13,8 7 4 - - NNW 1011,7 20
14.06.2019 19:00:00 22,6 12,5 4 2 11 6 N 1011,7 20
14.06.2019 18:00:00 22,9 11,6 7 4 14 8 N 1012,2 20
14.06.2019 17:00:00 23,5 12,0 4 2 - - N 1012,5 20
14.06.2019 16:00:00 22,0 11,5 7 4 22 12 SSE 1013,2 20
14.06.2019 15:00:00 22,4 13,0 7 4 29 16 S 1013,6 20
14.06.2019 14:00:00 21,3 13,0 14 8 - - S 1014,2 20
14.06.2019 13:00:00 19,6 11,7 18 10 29 16 SSW 1014,6 20
14.06.2019 12:00:00 18,9 11,6 18 10 32 18 S 1014,5 20
14.06.2019 11:00:00 17,2 10,9 18 10 - - S 1014,5 20
14.06.2019 10:00:00 15,0 11,8 18 10 25 14 SE 1014,2 20
14.06.2019 09:00:00 13,4 10,4 15 8 36 19 SE 1014,0 10
14.06.2019 08:00:00 13,4 10,3 25 14 - - SW 1014,7 10
14.06.2019 07:00:00 12,3 9,3 4 2 14 8 N 1014,5 20
14.06.2019 06:00:00 12,0 9,0 4 2 7 4 N 1013,7 20
14.06.2019 05:00:00 10,3 8,7 4 2 - - N 1013,1 20
14.06.2019 04:00:00 11,8 8,9 7 4 7 4 N 1013,1 20
14.06.2019 03:00:00 11,6 8,9 4 2 7 4 N 1013,3 20
14.06.2019 02:00:00 12,1 9,1 4 2 - - N 1013,8 20
14.06.2019 01:00:00 12,3 9,3 11 6 14 8 SE 1014,0 20
14.06.2019 00:00:00 13,1 9,5 11 6 14 8 SSE 1013,8 20
13.06.2019 23:00:00 13,6 9,7 11 6 - - SSE 1013,6 20
13.06.2019 22:00:00 14,4 9,7 11 6 25 14 S 1012,6 20
13.06.2019 21:00:00 15,6 9,0 14 8 29 16 S 1012,1 20
13.06.2019 20:00:00 15,8 10,2 18 10 - - S 1012,0 20
13.06.2019 19:00:00 16,2 10,7 18 10 40 21 SSE 1011,3 20
13.06.2019 18:00:00 15,3 10,1 25 14 47 25 S 1012,3 20
13.06.2019 17:00:00 16,4 9,9 18 10 - - S 1011,8 15
13.06.2019 16:00:00 16,1 11,6 18 10 43 23 S 1012,0 15
13.06.2019 15:00:00 16,4 9,3 26 14 43 23 S 1011,8 10
13.06.2019 14:00:00 14,2 8,0 29 16 - - S 1012,7 20
13.06.2019 13:00:00 15,1 7,6 32 18 47 25 S 1012,5 20
13.06.2019 12:00:00 14,8 8,1 25 14 43 23 S 1012,6 20
13.06.2019 11:00:00 13,7 8,2 22 12 - - S 1012,7 20

tt = Température de l'air
td = dewpoint
ff = Vitesse du vent
fx = gusts
dd = Direction du vent
ppp = reduced air pressure
vv = visibility

stations d'obs. à proximité